ProjectID,Date,Electric Generation,Electric Utility Import,Facility Electric Load
,YYYY-MM-DD,kW,kW,kW
504,2017-08-01,0.0,,0.0
504,2017-08-02,0.0,,0.0
504,2017-08-03,0.0,,0.0
504,2017-08-04,0.0,,0.0
504,2017-08-05,0.0,,0.0
504,2017-08-06,0.0,,0.0
504,2017-08-07,0.0,,0.0
504,2017-08-08,0.0,,0.0
504,2017-08-09,0.0,,0.0
504,2017-08-10,0.0,,0.0
504,2017-08-11,0.0,,0.0
504,2017-08-12,0.0,,0.0
504,2017-08-13,0.0,,0.0
504,2017-08-14,0.0,,0.0
504,2017-08-15,0.0,,0.0
504,2017-08-16,0.0,,0.0
504,2017-08-17,0.0,,0.0
504,2017-08-18,0.0,,0.0
504,2017-08-19,0.0,,0.0
504,2017-08-20,0.0,,0.0
504,2017-08-21,0.0,,0.0
504,2017-08-22,0.0,,0.0
504,2017-08-23,0.0,,0.0
504,2017-08-24,0.0,,0.0
504,2017-08-25,0.0,,0.0
504,2017-08-26,0.0,,0.0
504,2017-08-27,0.0,,0.0
504,2017-08-28,0.0,,0.0
504,2017-08-29,70.03583333333334,,70.03583333333334
504,2017-08-30,220.77374999999998,,220.77374999999998
504,2017-08-31,144.61708333333334,,144.61708333333334
504,2017-09-01,222.10708333333332,,222.10708333333332
504,2017-09-02,221.81875000000005,,221.81875000000005
504,2017-09-03,40.569583333333334,,40.569583333333334
504,2017-09-04,201.08958333333337,,201.08958333333337
504,2017-09-05,70.12875000000001,,70.12875000000001
504,2017-09-06,36.75875,,36.75875
504,2017-09-07,134.83666666666667,,134.83666666666667
504,2017-09-08,140.56125,,140.56125
504,2017-09-09,157.8445833333333,,157.8445833333333
504,2017-09-10,203.11916666666664,,203.11916666666664
504,2017-09-11,205.80124999999998,,205.80124999999998
504,2017-09-12,191.05500000000004,,191.05500000000004
504,2017-09-13,178.73125000000002,,178.73125000000002
504,2017-09-14,125.84041666666667,,125.84041666666667
504,2017-09-15,147.42333333333337,,147.42333333333337
504,2017-09-16,174.76791666666668,,174.76791666666668
504,2017-09-17,173.20666666666668,,173.20666666666668
504,2017-09-18,175.34291666666664,,175.34291666666664
504,2017-09-19,172.31458333333333,,172.31458333333333
504,2017-09-20,136.67916666666667,,136.67916666666667
504,2017-09-21,134.09875000000002,,134.09875000000002
504,2017-09-22,185.95625000000004,,185.95625000000004
504,2017-09-23,177.40708333333336,,177.40708333333336
504,2017-09-24,165.66708333333335,,165.66708333333335
504,2017-09-25,164.505,,164.505
504,2017-09-26,149.60916666666665,,149.60916666666665
504,2017-09-27,145.46916666666667,,145.46916666666667
504,2017-09-28,172.34541666666664,,172.34541666666664
504,2017-09-29,179.16708333333335,,179.16708333333335
504,2017-09-30,35.30125,,35.30125
504,2017-10-01,178.0091666666667,,178.0091666666667
504,2017-10-02,174.31708333333336,,174.31708333333336
504,2017-10-03,165.9391666666667,,165.9391666666667
504,2017-10-04,180.76999999999995,,180.76999999999995
504,2017-10-05,157.98874999999998,,157.98874999999998
504,2017-10-06,58.76333333333334,,58.76333333333334
504,2017-10-07,42.09791666666666,,42.09791666666666
504,2017-10-08,100.92291666666665,,100.92291666666665
504,2017-10-09,38.44916666666666,,38.44916666666666
504,2017-10-10,147.84583333333333,,147.84583333333333
504,2017-10-11,68.68124999999999,,68.68124999999999
504,2017-10-12,159.19458333333336,,159.19458333333336
504,2017-10-13,111.32166666666667,,111.32166666666667
504,2017-10-14,69.79625,,69.79625
504,2017-10-15,141.41416666666666,,141.41416666666666
504,2017-10-16,137.4225,,137.4225
504,2017-10-17,155.50541666666663,,155.50541666666663
504,2017-10-18,144.86458333333331,,144.86458333333331
504,2017-10-19,141.35708333333332,,141.35708333333332
504,2017-10-20,141.90499999999997,,141.90499999999997
504,2017-10-21,125.90750000000001,,125.90750000000001
504,2017-10-22,110.40875000000001,,110.40875000000001
504,2017-10-23,100.87083333333334,,100.87083333333334
504,2017-10-24,31.518333333333334,,31.518333333333334
504,2017-10-25,103.59124999999999,,103.59124999999999
504,2017-10-26,45.06,,45.06
504,2017-10-27,125.61083333333333,,125.61083333333333
504,2017-10-28,117.15625000000001,,117.15625000000001
504,2017-10-29,11.71875,,11.71875
504,2017-10-30,11.589999999999998,,11.589999999999998
504,2017-10-31,93.48708333333333,,93.48708333333333
504,2017-11-01,34.91166666666667,,34.91166666666667
504,2017-11-02,47.791666666666664,,47.791666666666664
504,2017-11-03,19.535416666666666,,19.535416666666666
504,2017-11-04,96.15916666666668,,96.15916666666668
504,2017-11-05,22.022083333333338,,22.022083333333338
504,2017-11-06,15.881250000000001,,15.881250000000001
504,2017-11-07,22.920416666666668,,22.920416666666668
504,2017-11-08,118.42208333333332,,118.42208333333332
504,2017-11-09,79.73833333333333,,79.73833333333333
504,2017-11-10,115.86833333333335,,115.86833333333335
504,2017-11-11,117.17041666666665,,117.17041666666665
504,2017-11-12,94.67291666666667,,94.67291666666667
504,2017-11-13,39.202083333333334,,39.202083333333334
504,2017-11-14,26.394583333333333,,26.394583333333333
504,2017-11-15,96.76791666666666,,96.76791666666666
504,2017-11-16,62.45708333333332,,62.45708333333332
504,2017-11-17,94.29333333333334,,94.29333333333334
504,2017-11-18,6.571666666666666,,6.571666666666666
504,2017-11-19,0.0,,0.0
504,2017-11-20,63.4075,,63.4075
504,2017-11-21,100.14458333333333,,100.14458333333333
504,2017-11-22,21.86583333333333,,21.86583333333333
504,2017-11-23,86.85791666666667,,86.85791666666667
504,2017-11-24,94.81791666666668,,94.81791666666668
504,2017-11-25,58.79791666666668,,58.79791666666668
504,2017-11-26,40.51583333333333,,40.51583333333333
504,2017-11-27,53.84375,,53.84375
504,2017-11-28,90.05208333333336,,90.05208333333336
504,2017-11-29,67.15125,,67.15125
504,2017-11-30,79.20041666666667,,79.20041666666667
504,2017-12-01,28.252499999999998,,28.252499999999998
504,2017-12-02,40.61458333333332,,40.61458333333332
504,2017-12-03,54.91,,54.91
504,2017-12-04,33.00791666666667,,33.00791666666667
504,2017-12-05,12.447916666666666,,12.447916666666666
504,2017-12-06,83.12750000000001,,83.12750000000001
504,2017-12-07,29.324166666666667,,29.324166666666667
504,2017-12-08,61.06541666666666,,61.06541666666666
504,2017-12-09,21.027500000000003,,21.027500000000003
504,2017-12-10,3.565,,3.565
504,2017-12-11,8.50375,,8.50375
504,2017-12-12,0.37999999999999995,,0.37999999999999995
504,2017-12-13,16.614583333333332,,16.614583333333332
504,2017-12-14,15.734166666666667,,15.734166666666667
504,2017-12-15,12.66916666666667,,12.66916666666667
504,2017-12-16,9.272083333333333,,9.272083333333333
504,2017-12-17,11.285416666666668,,11.285416666666668
504,2017-12-18,4.554583333333333,,4.554583333333333
504,2017-12-19,49.809583333333336,,49.809583333333336
504,2017-12-20,77.08208333333333,,77.08208333333333
504,2017-12-21,85.34625000000001,,85.34625000000001
504,2017-12-22,0.1758333333333333,,0.1758333333333333
504,2017-12-23,0.7133333333333334,,0.7133333333333334
504,2017-12-24,11.371250000000002,,11.371250000000002
504,2017-12-25,4.12625,,4.12625
504,2017-12-26,13.347500000000002,,13.347500000000002
504,2017-12-27,17.031249999999996,,17.031249999999996
504,2017-12-28,18.707083333333333,,18.707083333333333
504,2017-12-29,16.107916666666668,,16.107916666666668
504,2017-12-30,5.7525,,5.7525
504,2017-12-31,14.912499999999996,,14.912499999999996
504,2018-01-01,17.065,,17.065
504,2018-01-02,12.346666666666666,,12.346666666666666
504,2018-01-03,16.593749999999996,,16.593749999999996
504,2018-01-04,2.2475,,2.2475
504,2018-01-05,17.7775,,17.7775
504,2018-01-06,20.949166666666667,,20.949166666666667
504,2018-01-07,22.203333333333333,,22.203333333333333
504,2018-01-08,5.476666666666667,,5.476666666666667
504,2018-01-09,6.004166666666666,,6.004166666666666
504,2018-01-10,34.197916666666664,,34.197916666666664
504,2018-01-11,53.427083333333336,,53.427083333333336
504,2018-01-12,23.727500000000003,,23.727500000000003
504,2018-01-13,20.61583333333333,,20.61583333333333
504,2018-01-14,29.78125,,29.78125
504,2018-01-15,28.341250000000002,,28.341250000000002
504,2018-01-16,5.077916666666667,,5.077916666666667
504,2018-01-17,0.3279166666666667,,0.3279166666666667
504,2018-01-18,11.869583333333333,,11.869583333333333
504,2018-01-19,8.055833333333334,,8.055833333333334
504,2018-01-20,29.321666666666662,,29.321666666666662
504,2018-01-21,24.405,,24.405
504,2018-01-22,13.804583333333333,,13.804583333333333
504,2018-01-23,22.46083333333333,,22.46083333333333
504,2018-01-24,90.73708333333333,,90.73708333333333
504,2018-01-25,114.26833333333333,,114.26833333333333
504,2018-01-26,107.07583333333332,,107.07583333333332
504,2018-01-27,91.12083333333334,,91.12083333333334
504,2018-01-28,64.93625,,64.93625
504,2018-01-29,87.23583333333335,,87.23583333333335
504,2018-01-30,41.74833333333333,,41.74833333333333
504,2018-01-31,95.1825,,95.1825
504,2018-02-01,38.91166666666667,,38.91166666666667
504,2018-02-02,105.01666666666667,,105.01666666666667
504,2018-02-03,88.14708333333333,,88.14708333333333
504,2018-02-04,19.90375,,19.90375
504,2018-02-05,6.1187499999999995,,6.1187499999999995
504,2018-02-06,3.919166666666667,,3.919166666666667
504,2018-02-07,0.028749999999999998,,0.028749999999999998
504,2018-02-08,0.26708333333333334,,0.26708333333333334
504,2018-02-09,0.005416666666666667,,0.005416666666666667
504,2018-02-10,0.022083333333333333,,0.022083333333333333
504,2018-02-11,0.04708333333333333,,0.04708333333333333
504,2018-02-12,3.9399999999999995,,3.9399999999999995
504,2018-02-13,6.09125,,6.09125
504,2018-02-14,4.058333333333334,,4.058333333333334
504,2018-02-15,14.200416666666667,,14.200416666666667
504,2018-02-16,47.6625,,47.6625
504,2018-02-17,104.42041666666665,,104.42041666666665
504,2018-02-18,48.91416666666666,,48.91416666666666
504,2018-02-19,89.83458333333334,,89.83458333333334
504,2018-02-20,80.35666666666667,,80.35666666666667
504,2018-02-21,78.85000000000001,,78.85000000000001
504,2018-02-22,7.769583333333333,,7.769583333333333
504,2018-02-23,0.7158333333333333,,0.7158333333333333
504,2018-02-24,57.206666666666656,,57.206666666666656
504,2018-02-25,17.588333333333335,,17.588333333333335
504,2018-02-26,147.38958333333332,,147.38958333333332
504,2018-02-27,161.02750000000003,,161.02750000000003
504,2018-02-28,133.67833333333337,,133.67833333333337
504,2018-03-01,106.56875000000001,,106.56875000000001
504,2018-03-02,0.0,,0.0
504,2018-03-03,0.22541666666666668,,0.22541666666666668
504,2018-03-04,3.05875,,3.05875
504,2018-03-05,2.43875,,2.43875
504,2018-03-06,10.28,,10.28
504,2018-03-07,0.15375000000000003,,0.15375000000000003
504,2018-03-08,0.0,,0.0
504,2018-03-09,0.0,,0.0
504,2018-03-10,0.0,,0.0
504,2018-03-11,0.0,,0.0
504,2018-03-12,0.18375,,0.18375
504,2018-03-13,0.0,,0.0
504,2018-03-14,0.0,,0.0
504,2018-03-15,0.9541666666666667,,0.9541666666666667
504,2018-03-16,2.3941666666666666,,2.3941666666666666
504,2018-03-17,3.8837499999999996,,3.8837499999999996
504,2018-03-18,5.03375,,5.03375
504,2018-03-19,5.2775,,5.2775
504,2018-03-20,5.005,,5.005
504,2018-03-21,3.647083333333333,,3.647083333333333
504,2018-03-22,10.18625,,10.18625
504,2018-03-23,32.46875,,32.46875
504,2018-03-24,130.70333333333332,,130.70333333333332
504,2018-03-25,131.655,,131.655
504,2018-03-26,213.77333333333334,,213.77333333333334
504,2018-03-27,130.94791666666666,,130.94791666666666
504,2018-03-28,82.625,,82.625
504,2018-03-29,29.837500000000002,,29.837500000000002
504,2018-03-30,71.94958333333334,,71.94958333333334
504,2018-03-31,218.8620833333333,,218.8620833333333
504,2018-04-01,157.07666666666668,,157.07666666666668
504,2018-04-02,156.02625,,156.02625
504,2018-04-03,48.89708333333334,,48.89708333333334
504,2018-04-04,91.55624999999999,,91.55624999999999
504,2018-04-05,206.58083333333335,,206.58083333333335
504,2018-04-06,92.61583333333334,,92.61583333333334
504,2018-04-07,177.77874999999997,,177.77874999999997
504,2018-04-08,164.3504166666667,,164.3504166666667
504,2018-04-09,229.81875,,229.81875
504,2018-04-10,161.38541666666666,,161.38541666666666
504,2018-04-11,155.75125,,155.75125
504,2018-04-12,125.69125000000001,,125.69125000000001
504,2018-04-13,97.17833333333333,,97.17833333333333
504,2018-04-14,131.68333333333334,,131.68333333333334
504,2018-04-15,37.10041666666667,,37.10041666666667
504,2018-04-16,29.225416666666664,,29.225416666666664
504,2018-04-17,114.31500000000001,,114.31500000000001
504,2018-04-18,90.55583333333333,,90.55583333333333
504,2018-04-19,125.00624999999998,,125.00624999999998
504,2018-04-20,215.10125000000002,,215.10125000000002
504,2018-04-21,266.9254166666667,,266.9254166666667
504,2018-04-22,265.9166666666667,,265.9166666666667
504,2018-04-23,262.4491666666667,,262.4491666666667
504,2018-04-24,249.4154166666667,,249.4154166666667
504,2018-04-25,46.94916666666666,,46.94916666666666
504,2018-04-26,105.70041666666667,,105.70041666666667
504,2018-04-27,67.0525,,67.0525
504,2018-04-28,133.305,,133.305
504,2018-04-29,60.659166666666664,,60.659166666666664
504,2018-04-30,123.46333333333332,,123.46333333333332
504,2018-05-01,203.37208333333334,,203.37208333333334
504,2018-05-02,239.5520833333333,,239.5520833333333
504,2018-05-03,129.77333333333334,,129.77333333333334
504,2018-05-04,150.75791666666666,,150.75791666666666
504,2018-05-05,181.17999999999998,,181.17999999999998
504,2018-05-06,75.45541666666666,,75.45541666666666
504,2018-05-07,174.0545833333333,,174.0545833333333
504,2018-05-08,249.42208333333335,,249.42208333333335
504,2018-05-09,259.0783333333333,,259.0783333333333
504,2018-05-10,123.04416666666667,,123.04416666666667
504,2018-05-11,237.78375000000003,,237.78375000000003
504,2018-05-12,45.34875,,45.34875
504,2018-05-13,252.45583333333335,,252.45583333333335
504,2018-05-14,128.71625,,128.71625
504,2018-05-15,74.41666666666667,,74.41666666666667
504,2018-05-16,132.76333333333335,,132.76333333333335
504,2018-05-17,158.71125,,158.71125
504,2018-05-18,250.7916666666667,,250.7916666666667
504,2018-05-19,56.4975,,56.4975
504,2018-05-20,152.41958333333335,,152.41958333333335
504,2018-05-21,269.84875,,269.84875
504,2018-05-22,50.05208333333334,,50.05208333333334
504,2018-05-23,257.22375,,257.22375
504,2018-05-24,265.4741666666667,,265.4741666666667
504,2018-05-25,249.7891666666667,,249.7891666666667
504,2018-05-26,175.85958333333335,,175.85958333333335
504,2018-05-27,40.135000000000005,,40.135000000000005
504,2018-05-28,154.13041666666666,,154.13041666666666
504,2018-05-29,245.995,,245.995
504,2018-05-30,243.60916666666662,,243.60916666666662
504,2018-05-31,167.86458333333334,,167.86458333333334
504,2018-06-01,185.5104166666667,,185.5104166666667
504,2018-06-02,181.60416666666666,,181.60416666666666
504,2018-06-03,175.07000000000002,,175.07000000000002
504,2018-06-04,88.12208333333331,,88.12208333333331
504,2018-06-05,123.61166666666666,,123.61166666666666
504,2018-06-06,161.71333333333334,,161.71333333333334
504,2018-06-07,170.44791666666666,,170.44791666666666
504,2018-06-08,251.34625000000003,,251.34625000000003
504,2018-06-09,237.8929166666666,,237.8929166666666
504,2018-06-10,270.1041666666667,,270.1041666666667
504,2018-06-11,286.21083333333337,,286.21083333333337
504,2018-06-12,277.75791666666663,,277.75791666666663
504,2018-06-13,101.15125,,101.15125
504,2018-06-14,210.71875,,210.71875
504,2018-06-15,179.61708333333334,,179.61708333333334
504,2018-06-16,266.9975,,266.9975
504,2018-06-17,269.60416666666663,,269.60416666666663
504,2018-06-18,198.66625000000002,,198.66625000000002
504,2018-06-19,267.06250000000006,,267.06250000000006
504,2018-06-20,169.16666666666666,,169.16666666666666
504,2018-06-21,251.20041666666665,,251.20041666666665
504,2018-06-22,252.15374999999997,,252.15374999999997
504,2018-06-23,51.01541666666666,,51.01541666666666
504,2018-06-24,133.84125,,133.84125
504,2018-06-25,284.97125,,284.97125
504,2018-06-26,281.37249999999995,,281.37249999999995
504,2018-06-27,88.06791666666668,,88.06791666666668
504,2018-06-28,138.35708333333335,,138.35708333333335
504,2018-06-29,273.0729166666667,,273.0729166666667
504,2018-06-30,146.54958333333335,,146.54958333333335
504,2018-07-01,244.64083333333338,,244.64083333333338
504,2018-07-02,239.54208333333335,,239.54208333333335
504,2018-07-03,248.59833333333327,,248.59833333333327
504,2018-07-04,255.365,,255.365
504,2018-07-05,206.16458333333333,,206.16458333333333
504,2018-07-06,222.14083333333335,,222.14083333333335
504,2018-07-07,267.75250000000005,,267.75250000000005
504,2018-07-08,271.2995833333334,,271.2995833333334
504,2018-07-09,270.67958333333337,,270.67958333333337
504,2018-07-10,226.95291666666662,,226.95291666666662
504,2018-07-11,238.42166666666665,,238.42166666666665
504,2018-07-12,249.96375,,249.96375
504,2018-07-13,253.64041666666665,,253.64041666666665
504,2018-07-14,138.1225,,138.1225
504,2018-07-15,222.62750000000005,,222.62750000000005
504,2018-07-16,236.07833333333335,,236.07833333333335
504,2018-07-17,85.21208333333334,,85.21208333333334
504,2018-07-18,237.65874999999997,,237.65874999999997
504,2018-07-19,273.27625,,273.27625
504,2018-07-20,261.90625000000006,,261.90625000000006
504,2018-07-21,244.8541666666667,,244.8541666666667
504,2018-07-22,132.28916666666666,,132.28916666666666
504,2018-07-23,117.61,,117.61
504,2018-07-24,134.93708333333333,,134.93708333333333
504,2018-07-25,107.82541666666667,,107.82541666666667
504,2018-07-26,177.76249999999996,,177.76249999999996
504,2018-07-27,169.19041666666666,,169.19041666666666
504,2018-07-28,185.35666666666665,,185.35666666666665
504,2018-07-29,246.76,,246.76
504,2018-07-30,172.41916666666668,,172.41916666666668
504,2018-07-31,209.63833333333332,,209.63833333333332
504,2018-08-01,102.09166666666665,,102.09166666666665
504,2018-08-02,137.73666666666665,,137.73666666666665
504,2018-08-03,66.13541666666666,,66.13541666666666
504,2018-08-04,192.07541666666665,,192.07541666666665
504,2018-08-05,232.08041666666668,,232.08041666666668
504,2018-08-06,209.91666666666666,,209.91666666666666
504,2018-08-07,156.05208333333334,,156.05208333333334
504,2018-08-08,143.435,,143.435
504,2018-08-09,222.50458333333336,,222.50458333333336
504,2018-08-10,161.66458333333335,,161.66458333333335
504,2018-08-11,33.75,,33.75
504,2018-08-12,137.87791666666666,,137.87791666666666
504,2018-08-13,102.66416666666667,,102.66416666666667
504,2018-08-14,125.66958333333332,,125.66958333333332
504,2018-08-15,178.53874999999996,,178.53874999999996
504,2018-08-16,200.1504166666667,,200.1504166666667
504,2018-08-17,101.9375,,101.9375
504,2018-08-18,113.98416666666668,,113.98416666666668
504,2018-08-19,187.90083333333337,,187.90083333333337
504,2018-08-20,186.32000000000002,,186.32000000000002
504,2018-08-21,170.35416666666666,,170.35416666666666
504,2018-08-22,174.11500000000004,,174.11500000000004
504,2018-08-23,238.26250000000002,,238.26250000000002
504,2018-08-24,215.6775,,215.6775
504,2018-08-25,193.19833333333335,,193.19833333333335
504,2018-08-26,146.66125,,146.66125
504,2018-08-27,163.77583333333334,,163.77583333333334
504,2018-08-28,186.21916666666664,,186.21916666666664
504,2018-08-29,192.245,,192.245
504,2018-08-30,132.01083333333335,,132.01083333333335
504,2018-08-31,82.34333333333335,,82.34333333333335
504,2018-09-01,142.9,,142.9
504,2018-09-02,131.78625,,131.78625
504,2018-09-03,152.82833333333335,,152.82833333333335
504,2018-09-04,202.5733333333333,,202.5733333333333
504,2018-09-05,194.14625,,194.14625
504,2018-09-06,161.18208333333334,,161.18208333333334
504,2018-09-07,130.88083333333333,,130.88083333333333
504,2018-09-08,113.0,,113.0
504,2018-09-09,104.19791666666667,,104.19791666666667
504,2018-09-10,26.520833333333332,,26.520833333333332
504,2018-09-11,69.94791666666667,,69.94791666666667
504,2018-09-12,71.375,,71.375
504,2018-09-13,143.61416666666665,,143.61416666666665
504,2018-09-14,121.68166666666666,,121.68166666666666
504,2018-09-15,150.95833333333334,,150.95833333333334
504,2018-09-16,178.5725,,178.5725
504,2018-09-17,121.5,,121.5
504,2018-09-18,146.5475,,146.5475
504,2018-09-19,133.42083333333332,,133.42083333333332
504,2018-09-20,102.06791666666668,,102.06791666666668
504,2018-09-21,77.01083333333334,,77.01083333333334
504,2018-09-22,140.13541666666666,,140.13541666666666
504,2018-09-23,166.12,,166.12
504,2018-09-24,138.08291666666665,,138.08291666666665
504,2018-09-25,23.34875,,23.34875
504,2018-09-26,72.25541666666668,,72.25541666666668
504,2018-09-27,146.07291666666666,,146.07291666666666
504,2018-09-28,86.29666666666667,,86.29666666666667
504,2018-09-29,172.07291666666666,,172.07291666666666
504,2018-09-30,112.13583333333334,,112.13583333333334
504,2018-10-01,21.25,,21.25
504,2018-10-02,20.59875,,20.59875
504,2018-10-03,72.71833333333332,,72.71833333333332
504,2018-10-04,51.64083333333334,,51.64083333333334
504,2018-10-05,170.49458333333334,,170.49458333333334
504,2018-10-06,79.53083333333332,,79.53083333333332
504,2018-10-07,43.749583333333334,,43.749583333333334
504,2018-10-08,33.374583333333334,,33.374583333333334
504,2018-10-09,99.38541666666667,,99.38541666666667
504,2018-10-10,136.07791666666665,,136.07791666666665
504,2018-10-11,29.99,,29.99
504,2018-10-12,110.54166666666667,,110.54166666666667
504,2018-10-13,105.21333333333332,,105.21333333333332
504,2018-10-14,131.20833333333334,,131.20833333333334
504,2018-10-15,41.23458333333333,,41.23458333333333
504,2018-10-16,140.93208333333334,,140.93208333333334
504,2018-10-17,101.19291666666668,,101.19291666666668
504,2018-10-18,159.63,,159.63
504,2018-10-19,139.09916666666666,,139.09916666666666
504,2018-10-20,84.32791666666667,,84.32791666666667
504,2018-10-21,108.8075,,108.8075
504,2018-10-22,57.786249999999995,,57.786249999999995
504,2018-10-23,88.6825,,88.6825
504,2018-10-24,54.354583333333345,,54.354583333333345
504,2018-10-25,104.43791666666668,,104.43791666666668
504,2018-10-26,102.47416666666668,,102.47416666666668
504,2018-10-27,14.817916666666667,,14.817916666666667
504,2018-10-28,47.79708333333334,,47.79708333333334
504,2018-10-29,47.72416666666667,,47.72416666666667
504,2018-10-30,76.47916666666667,,76.47916666666667
504,2018-10-31,57.901250000000005,,57.901250000000005
504,2018-11-01,9.3125,,9.3125
504,2018-11-02,18.765833333333333,,18.765833333333333
504,2018-11-03,63.42749999999999,,63.42749999999999
504,2018-11-04,99.86458333333333,,99.86458333333333
504,2018-11-05,21.28625,,21.28625
504,2018-11-06,14.150833333333333,,14.150833333333333
504,2018-11-07,102.22458333333334,,102.22458333333334
504,2018-11-08,65.39083333333333,,65.39083333333333
504,2018-11-09,24.645833333333332,,24.645833333333332
504,2018-11-10,83.59333333333333,,83.59333333333333
504,2018-11-11,102.1925,,102.1925
504,2018-11-12,86.77125000000001,,86.77125000000001
504,2018-11-13,9.541666666666666,,9.541666666666666
504,2018-11-14,94.73458333333333,,94.73458333333333
504,2018-11-15,41.614583333333336,,41.614583333333336
504,2018-11-16,0.010833333333333334,,0.010833333333333334
504,2018-11-17,0.91125,,0.91125
504,2018-11-18,3.4583333333333335,,3.4583333333333335
504,2018-11-19,1.0833333333333333,,1.0833333333333333
504,2018-11-20,0.0,,0.0
504,2018-11-21,0.8754166666666667,,0.8754166666666667
504,2018-11-22,3.09375,,3.09375
504,2018-11-23,2.9949999999999997,,2.9949999999999997
504,2018-11-24,3.0466666666666664,,3.0466666666666664
504,2018-11-25,2.6508333333333334,,2.6508333333333334
504,2018-11-26,3.3441666666666663,,3.3441666666666663
504,2018-11-27,20.859583333333333,,20.859583333333333
504,2018-11-28,50.807500000000005,,50.807500000000005
504,2018-11-29,61.052083333333336,,61.052083333333336
504,2018-11-30,28.755416666666665,,28.755416666666665
504,2018-12-01,73.76083333333334,,73.76083333333334
504,2018-12-02,12.74,,12.74
504,2018-12-03,57.60958333333334,,57.60958333333334
504,2018-12-04,84.22375,,84.22375
504,2018-12-05,74.24541666666669,,74.24541666666669
504,2018-12-06,45.879999999999995,,45.879999999999995